SIC0904 LIRF-LICJ

Flight info

Callsign SIC0904
Flight time 0h 43m
Altitude 31000
Route ROTUN DCT GIANO
Aircraft A320/M-SDE1E2E3FGIJ1J4RWXY/LB1G1

Departure

Time 2026-05-01 08:36
Airport Rome–Fiumicino Leonardo da Vinci International Airport (LIRF)

Arrival

Time 2026-05-01 09:19
Airport Falcone–Borsellino Airport (LICJ)
Time Latitude Longitude Altitude Speed Heading
2026-05-01 08:08 41.80195 12.26287 14 ft 0 kts 24°
2026-05-01 08:24 41.80182 12.26280 15 ft 4 kts 21°
2026-05-01 08:24 41.80157 12.26269 14 ft 4 kts
2026-05-01 08:25 41.80131 12.26269 16 ft 4 kts 334°
2026-05-01 08:25 41.80119 12.26283 17 ft 1 kts 295°
2026-05-01 08:25 41.80117 12.26287 17 ft 0 kts 295°
2026-05-01 08:28 41.80120 12.26278 15 ft 4 kts 295°
2026-05-01 08:28 41.80145 12.26206 16 ft 13 kts 293°
2026-05-01 08:28 41.80185 12.26087 14 ft 13 kts 294°
2026-05-01 08:28 41.80237 12.26040 14 ft 10 kts
2026-05-01 08:29 41.80307 12.26065 14 ft 11 kts 343°
2026-05-01 08:29 41.80306 12.25954 14 ft 16 kts 251°
2026-05-01 08:29 41.80262 12.25794 14 ft 20 kts 250°
2026-05-01 08:29 41.80211 12.25606 15 ft 23 kts 250°
2026-05-01 08:30 41.80154 12.25396 16 ft 25 kts 248°
2026-05-01 08:30 41.80095 12.25171 14 ft 27 kts 261°
2026-05-01 08:30 41.80112 12.24915 14 ft 29 kts 264°
2026-05-01 08:30 41.80049 12.24662 13 ft 28 kts 249°
2026-05-01 08:31 41.79981 12.24411 15 ft 28 kts 251°
2026-05-01 08:31 41.79919 12.24168 14 ft 28 kts 261°
2026-05-01 08:31 41.79883 12.23922 17 ft 27 kts 250°
2026-05-01 08:31 41.79823 12.23720 14 ft 17 kts 231°
2026-05-01 08:32 41.79701 12.23741 14 ft 22 kts 163°
2026-05-01 08:32 41.79538 12.23812 7 ft 26 kts 161°
2026-05-01 08:32 41.79359 12.23887 15 ft 28 kts 162°
2026-05-01 08:32 41.79160 12.23970 17 ft 31 kts 162°
2026-05-01 08:33 41.78963 12.24055 16 ft 24 kts 162°
2026-05-01 08:33 41.78806 12.24119 16 ft 25 kts 163°
2026-05-01 08:33 41.78632 12.24188 15 ft 28 kts 163°
2026-05-01 08:33 41.78450 12.24264 16 ft 26 kts 162°
2026-05-01 08:34 41.78328 12.24276 17 ft 16 kts 231°
2026-05-01 08:34 41.78287 12.24117 14 ft 20 kts 252°
2026-05-01 08:34 41.78286 12.24014 18 ft 10 kts 309°
2026-05-01 08:34 41.78332 12.23985 16 ft 0 kts 342°
2026-05-01 08:35 41.78375 12.23968 16 ft 32 kts 343°
2026-05-01 08:35 41.78831 12.23779 16 ft 101 kts 343°
2026-05-01 08:35 41.79685 12.23423 31 ft 151 kts 343°
2026-05-01 08:35 41.80693 12.22985 536 ft 159 kts 344°
2026-05-01 08:36 41.81816 12.22475 930 ft 182 kts 346°
2026-05-01 08:36 41.83007 12.21612 1413 ft 207 kts 320°
2026-05-01 08:36 41.83759 12.19899 2168 ft 222 kts 288°
2026-05-01 08:36 41.83812 12.17804 2971 ft 232 kts 258°
2026-05-01 08:37 41.83073 12.15927 3757 ft 236 kts 226°
2026-05-01 08:37 41.81691 12.14789 4612 ft 235 kts 194°
2026-05-01 08:37 41.80060 12.14424 5353 ft 241 kts 188°
2026-05-01 08:37 41.78393 12.14059 6157 ft 243 kts 189°
2026-05-01 08:38 41.76727 12.13653 6959 ft 245 kts 189°
2026-05-01 08:38 41.75034 12.13230 7669 ft 250 kts 190°
2026-05-01 08:38 41.73311 12.12800 8389 ft 254 kts 191°
2026-05-01 08:38 41.71550 12.12362 9119 ft 259 kts 191°
2026-05-01 08:39 41.69758 12.11909 9819 ft 264 kts 195°
2026-05-01 08:39 41.68071 12.10929 10470 ft 266 kts 218°
2026-05-01 08:39 41.66583 12.09351 10862 ft 283 kts 223°
2026-05-01 08:39 41.65003 12.07607 11176 ft 307 kts 223°
2026-05-01 08:40 41.61454 12.03705 11644 ft 355 kts 220°
2026-05-01 08:40 41.59200 12.02114 11895 ft 379 kts 196°
2026-05-01 08:40 41.56561 12.01720 12485 ft 387 kts 178°
2026-05-01 08:41 41.53859 12.01839 13188 ft 391 kts 178°
2026-05-01 08:41 41.51119 12.01886 13894 ft 396 kts 179°
2026-05-01 08:41 41.48347 12.01869 14532 ft 401 kts 180°
2026-05-01 08:41 41.45543 12.01822 15155 ft 405 kts 181°
2026-05-01 08:42 41.42713 12.01771 15753 ft 409 kts 181°
2026-05-01 08:42 41.39850 12.01726 16353 ft 413 kts 181°
2026-05-01 08:42 41.36960 12.01693 16952 ft 418 kts 181°
2026-05-01 08:42 41.34039 12.01825 17561 ft 422 kts 173°
2026-05-01 08:43 41.31154 12.02625 18205 ft 426 kts 162°
2026-05-01 08:43 41.28404 12.04129 18786 ft 429 kts 150°
2026-05-01 08:43 41.25916 12.06243 19343 ft 431 kts 140°
2026-05-01 08:43 41.23688 12.08911 19919 ft 433 kts 133°
2026-05-01 08:44 41.21521 12.11721 20511 ft 438 kts 133°
2026-05-01 08:44 41.19328 12.14560 21065 ft 442 kts 134°
2026-05-01 08:44 41.16946 12.17189 21659 ft 449 kts 144°
2026-05-01 08:44 41.14250 12.19311 22245 ft 454 kts 154°
2026-05-01 08:45 41.11311 12.20862 22749 ft 456 kts 164°
2026-05-01 08:45 41.08272 12.22133 23235 ft 460 kts 165°
2026-05-01 08:45 41.05202 12.23423 23732 ft 464 kts 165°
2026-05-01 08:45 41.02119 12.24725 24154 ft 467 kts 165°
2026-05-01 08:46 40.99008 12.26043 24544 ft 471 kts 165°
2026-05-01 08:46 40.95881 12.27371 24921 ft 474 kts 165°
2026-05-01 08:46 40.92733 12.28704 25300 ft 477 kts 165°
2026-05-01 08:46 40.89550 12.29961 25645 ft 478 kts 171°
2026-05-01 08:47 40.86276 12.30694 26000 ft 475 kts 180°
2026-05-01 08:47 40.82981 12.30955 26362 ft 476 kts 182°
2026-05-01 08:47 40.79658 12.31185 26739 ft 479 kts 183°
2026-05-01 08:47 40.76322 12.31420 27114 ft 481 kts 183°
2026-05-01 08:48 40.72967 12.31659 27491 ft 484 kts 183°
2026-05-01 08:48 40.69605 12.31899 27862 ft 487 kts 183°
2026-05-01 08:48 40.66214 12.32141 28208 ft 489 kts 184°
2026-05-01 08:48 40.62808 12.32389 28583 ft 491 kts 184°
2026-05-01 08:49 40.59392 12.32639 28936 ft 493 kts 184°
2026-05-01 08:49 40.55958 12.32890 29283 ft 496 kts 184°
2026-05-01 08:49 40.52540 12.33134 29618 ft 498 kts 184°
2026-05-01 08:49 40.49031 12.33383 29955 ft 501 kts 184°
2026-05-01 08:50 40.45591 12.33630 30286 ft 501 kts 184°
2026-05-01 08:50 40.42068 12.33883 30685 ft 500 kts 184°
2026-05-01 08:50 40.38642 12.34133 31069 ft 500 kts 184°
2026-05-01 08:50 40.35167 12.34386 31211 ft 500 kts 184°
2026-05-01 08:51 40.28256 12.34885 31240 ft 496 kts 185°
2026-05-01 08:51 40.21398 12.35367 31235 ft 493 kts 185°
2026-05-01 08:52 40.14542 12.35861 31236 ft 493 kts 185°
2026-05-01 08:52 40.07695 12.36352 31236 ft 492 kts 185°
2026-05-01 08:53 40.00853 12.36827 31237 ft 492 kts 185°
2026-05-01 08:53 39.94013 12.37306 31237 ft 493 kts 185°
2026-05-01 08:54 39.87169 12.37791 31238 ft 493 kts 185°
2026-05-01 08:54 39.80320 12.38274 31193 ft 493 kts 185°
2026-05-01 08:55 39.73478 12.38756 31228 ft 491 kts 185°
2026-05-01 08:55 39.66656 12.39237 31241 ft 491 kts 185°
2026-05-01 08:56 39.59847 12.39707 31242 ft 490 kts 185°
2026-05-01 08:56 39.53106 12.40176 31230 ft 489 kts 185°
2026-05-01 08:57 39.46293 12.40655 31236 ft 488 kts 185°
2026-05-01 08:57 39.39520 12.41131 30932 ft 488 kts 185°
2026-05-01 08:58 39.36131 12.41363 30323 ft 487 kts 185°
2026-05-01 08:58 39.32732 12.41593 29315 ft 489 kts 185°
2026-05-01 08:58 39.30441 12.41754 28879 ft 485 kts 184°
2026-05-01 08:58 39.27083 12.41993 28089 ft 482 kts 184°
2026-05-01 08:59 39.23753 12.42228 27356 ft 478 kts 184°
2026-05-01 08:59 39.20442 12.42455 26603 ft 475 kts 184°
2026-05-01 08:59 39.17143 12.42680 25856 ft 473 kts 184°
2026-05-01 08:59 39.13863 12.42904 25098 ft 471 kts 183°
2026-05-01 09:00 39.10643 12.43120 24385 ft 468 kts 183°
2026-05-01 09:00 39.07398 12.43339 23635 ft 467 kts 182°
2026-05-01 09:00 39.04157 12.43559 22848 ft 463 kts 182°
2026-05-01 09:00 39.00959 12.43782 22143 ft 458 kts 182°
2026-05-01 09:01 38.97807 12.44003 21455 ft 453 kts 182°
2026-05-01 09:01 38.94673 12.44220 20774 ft 449 kts 181°
2026-05-01 09:01 38.91575 12.44435 20133 ft 445 kts 181°
2026-05-01 09:01 38.88518 12.44776 19507 ft 444 kts 174°
2026-05-01 09:02 38.85497 12.45750 18838 ft 445 kts 163°
2026-05-01 09:02 38.82643 12.47325 18011 ft 449 kts 156°
2026-05-01 09:02 38.79827 12.49028 17255 ft 446 kts 156°
2026-05-01 09:02 38.77027 12.50716 16503 ft 444 kts 156°
2026-05-01 09:03 38.74245 12.52387 15936 ft 438 kts 156°
2026-05-01 09:03 38.71471 12.54051 15229 ft 437 kts 156°
2026-05-01 09:03 38.68708 12.55704 14710 ft 431 kts 156°
2026-05-01 09:03 38.66008 12.57320 14080 ft 426 kts 156°
2026-05-01 09:04 38.63395 12.58883 12915 ft 416 kts 156°
2026-05-01 09:04 38.60812 12.60425 12091 ft 400 kts 156°
2026-05-01 09:04 38.58334 12.61908 11461 ft 392 kts 156°
2026-05-01 09:04 38.55872 12.63382 10879 ft 388 kts 156°
2026-05-01 09:05 38.53479 12.64814 10745 ft 371 kts 156°
2026-05-01 09:05 38.51188 12.66182 10613 ft 356 kts 156°
2026-05-01 09:05 38.48997 12.67483 10503 ft 343 kts 156°
2026-05-01 09:05 38.46856 12.68751 10364 ft 331 kts 156°
2026-05-01 09:06 38.44802 12.69970 10211 ft 322 kts 156°
2026-05-01 09:06 38.42803 12.71160 9999 ft 308 kts 156°
2026-05-01 09:06 38.40900 12.72296 9618 ft 298 kts 156°
2026-05-01 09:06 38.39039 12.73409 9123 ft 293 kts 156°
2026-05-01 09:07 38.37244 12.74592 8641 ft 288 kts 142°
2026-05-01 09:07 38.35907 12.76444 8304 ft 284 kts 117°
2026-05-01 09:07 38.35288 12.78774 8069 ft 274 kts 93°
2026-05-01 09:07 38.35419 12.81130 7921 ft 262 kts 70°
2026-05-01 09:08 38.36078 12.83263 7777 ft 259 kts 63°
2026-05-01 09:08 38.36787 12.85350 7636 ft 258 kts 63°
2026-05-01 09:08 38.37502 12.87445 7497 ft 257 kts 63°
2026-05-01 09:08 38.38213 12.89536 7364 ft 256 kts 63°
2026-05-01 09:09 38.38916 12.91616 7225 ft 255 kts 63°
2026-05-01 09:09 38.39484 12.93713 7106 ft 250 kts 82°
2026-05-01 09:09 38.39198 12.95847 6992 ft 245 kts 117°
2026-05-01 09:09 38.38045 12.97383 6855 ft 243 kts 151°
2026-05-01 09:10 38.36530 12.98305 6728 ft 244 kts 155°
2026-05-01 09:10 38.34962 12.99220 6588 ft 244 kts 155°
2026-05-01 09:10 38.33406 12.99952 6445 ft 242 kts 173°
2026-05-01 09:10 38.31737 12.99711 6309 ft 240 kts 205°
2026-05-01 09:11 38.30448 12.98484 6184 ft 235 kts 236°
2026-05-01 09:11 38.29711 12.96645 6066 ft 233 kts 250°
2026-05-01 09:11 38.29077 12.94740 5847 ft 234 kts 250°
2026-05-01 09:11 38.28437 12.92841 5674 ft 233 kts 249°
2026-05-01 09:12 38.27809 12.90978 5546 ft 233 kts 249°
2026-05-01 09:12 38.27156 12.89048 5414 ft 233 kts 249°
2026-05-01 09:12 38.26513 12.87153 5302 ft 233 kts 249°
2026-05-01 09:12 38.25865 12.85263 5177 ft 233 kts 247°
2026-05-01 09:13 38.24874 12.83639 5056 ft 237 kts 215°
2026-05-01 09:13 38.23338 12.82960 4853 ft 239 kts 179°
2026-05-01 09:13 38.21754 12.83454 4521 ft 234 kts 154°
2026-05-01 09:13 38.20264 12.84284 4223 ft 233 kts 154°
2026-05-01 09:14 38.18784 12.85096 3930 ft 232 kts 154°
2026-05-01 09:14 38.17301 12.85907 3634 ft 231 kts 153°
2026-05-01 09:14 38.15828 12.86709 3356 ft 231 kts 153°
2026-05-01 09:14 38.14367 12.87501 3167 ft 222 kts 154°
2026-05-01 09:15 38.12984 12.88251 3098 ft 213 kts 152°
2026-05-01 09:15 38.11899 12.89395 3039 ft 201 kts 116°
2026-05-01 09:15 38.11588 12.91025 2850 ft 188 kts 81°
2026-05-01 09:15 38.11993 12.92572 2641 ft 183 kts 64°
2026-05-01 09:16 38.12488 12.94026 2459 ft 177 kts 62°
2026-05-01 09:16 38.12969 12.95442 2278 ft 172 kts 62°
2026-05-01 09:16 38.13441 12.96832 2046 ft 169 kts 64°
2026-05-01 09:17 38.14370 12.99575 1601 ft 167 kts 63°
2026-05-01 09:17 38.14814 13.00889 1376 ft 157 kts 64°
2026-05-01 09:17 38.15613 13.03273 989 ft 135 kts 65°
2026-05-01 09:18 38.15981 13.04354 758 ft 133 kts 63°
2026-05-01 09:18 38.16701 13.06460 408 ft 128 kts 65°
2026-05-01 09:19 38.17395 13.08539 149 ft 127 kts 64°
2026-05-01 09:19 38.17735 13.09545 66 ft 115 kts 64°
2026-05-01 09:19 38.17948 13.10174 62 ft 35 kts 67°
2026-05-01 09:20 38.18023 13.10162 67 ft 12 kts 278°
2026-05-01 09:20 38.18054 13.09951 60 ft 9 kts 327°
2026-05-01 09:21 38.18151 13.10173 59 ft 20 kts 67°
2026-05-01 09:21 38.18205 13.10330 66 ft 15 kts 62°
2026-05-01 09:21 38.18336 13.10470 59 ft 15 kts 40°
2026-05-01 09:22 38.18446 13.10547 62 ft 8 kts 54°
2026-05-01 09:22 38.18497 13.10576 60 ft 7 kts 342°
2026-05-01 09:23 38.18527 13.10560 65 ft 1 kts 336°
2026-05-01 09:23 38.18528 13.10559 65 ft 0 kts 336°